• In Belarus
  • List of Countries
  • For 7 days
  • Water Temperature
  • Satellite Maps
  • Weather Map
  • Weather Widgets
  • user-avatar
    Login

    Hourly Weather Ulegej

    Today, 25 March, Monday

    Time Temperature Precipitation Wind Pressure Humidity
    00:00 -3°C° 0 mm 2 mps 616 mmHg 48%
    01:00 -3°C° 0 mm 2 mps 615 mmHg 49%
    02:00 -4°C° 0 mm 2 mps 615 mmHg 50%
    03:00 -4°C° 0 mm 2 mps 615 mmHg 51%
    04:00 -5°C° 0 mm 2 mps 615 mmHg 50%
    05:00 -5°C° 0 mm 2 mps 615 mmHg 49%
    06:00 -5°C° 0 mm 2 mps 615 mmHg 48%
    07:00 -5°C° 0 mm 3 mps 615 mmHg 42%
    08:00 -4°C° 0 mm 3 mps 615 mmHg 37%
    09:00 -1°C° 0 mm 3 mps 616 mmHg 32%
    10:00 0°C° 0 mm 3 mps 615 mmHg 29%
    11:00 +1°C° 0 mm 3 mps 615 mmHg 26%
    12:00 +3°C° 0 mm 4 mps 616 mmHg 22%
    13:00 +3°C° 0 mm 4 mps 616 mmHg 23%
    14:00 +3°C° 0 mm 5 mps 616 mmHg 23%
    15:00 +3°C° 0 mm 5 mps 615 mmHg 23%
    16:00 +2°C° 0 mm 5 mps 616 mmHg 28%
    17:00 +1°C° 0 mm 4 mps 616 mmHg 32%
    18:00 0°C° 0 mm 4 mps 616 mmHg 39%
    19:00 +1°C° 0 mm 3 mps 616 mmHg 43%
    20:00 +1°C° 0 mm 2 mps 616 mmHg 47%
    21:00 -1°C° 0 mm 2 mps 617 mmHg 51%
    22:00 -1°C° 0 mm 2 mps 617 mmHg 54%
    23:00 0°C° 0 mm 1 mps 617 mmHg 57%

    Tomorrow, 26 March, Tuesday

    Time Temperature Precipitation Wind Pressure Humidity
    00:00 0°C° 0 mm 1 mps 617 mmHg 60%
    01:00 -1°C° 0 mm 1 mps 617 mmHg 62%
    02:00 -1°C° 0 mm 1 mps 617 mmHg 64%
    03:00 -2°C° 0 mm 1 mps 617 mmHg 66%
    04:00 -2°C° 0 mm 1 mps 617 mmHg 68%
    05:00 -3°C° 0 mm 1 mps 617 mmHg 70%
    06:00 -3°C° 0 mm 1 mps 617 mmHg 71%
    07:00 -2°C° 0 mm 1 mps 618 mmHg 66%
    08:00 -2°C° 0 mm 1 mps 618 mmHg 61%
    09:00 -1°C° 0 mm 1 mps 618 mmHg 56%
    10:00 0°C° 0 mm 1 mps 618 mmHg 50%
    11:00 -1°C° 0 mm 2 mps 618 mmHg 45%
    12:00 -1°C° 0 mm 2 mps 618 mmHg 40%
    13:00 -1°C° 0 mm 2 mps 618 mmHg 38%
    14:00 0°C° 0 mm 3 mps 618 mmHg 36%
    15:00 0°C° 0 mm 3 mps 618 mmHg 34%
    16:00 -1°C° 0 mm 3 mps 619 mmHg 37%
    17:00 -2°C° 0 mm 3 mps 619 mmHg 40%
    18:00 -3°C° 0 mm 4 mps 619 mmHg 43%
    19:00 -4°C° 0 mm 3 mps 620 mmHg 48%
    20:00 -5°C° 0 mm 3 mps 620 mmHg 54%
    21:00 -5°C° 0 mm 2 mps 621 mmHg 60%
    22:00 -5°C° 0 mm 2 mps 621 mmHg 62%
    23:00 -5°C° 0 mm 2 mps 621 mmHg 64%

    Day after tomorrow, 27 March, Wednesday

    Time Temperature Precipitation Wind Pressure Humidity
    00:00 -4°C° 0 mm 1 mps 621 mmHg 66%
    01:00 -4°C° 0 mm 1 mps 621 mmHg 67%
    02:00 -6°C° 0 mm 1 mps 620 mmHg 68%
    03:00 -6°C° 0 mm 1 mps 620 mmHg 69%
    04:00 -7°C° 0 mm 1 mps 620 mmHg 70%
    05:00 -7°C° 0 mm 1 mps 620 mmHg 70%
    06:00 -7°C° 0 mm 1 mps 620 mmHg 70%
    07:00 -6°C° 0 mm 1 mps 620 mmHg 60%
    08:00 -4°C° 0 mm 1 mps 620 mmHg 50%
    09:00 -2°C° 0 mm 1 mps 620 mmHg 40%
    10:00 -1°C° 0 mm 1 mps 620 mmHg 33%
    11:00 +1°C° 0 mm 1 mps 620 mmHg 27%
    12:00 +2°C° 0 mm 1 mps 619 mmHg 20%
    13:00 +2°C° 0 mm 2 mps 619 mmHg 18%
    14:00 +3°C° 0 mm 2 mps 619 mmHg 16%
    15:00 +4°C° 0 mm 2 mps 619 mmHg 14%
    16:00 +3°C° 0 mm 2 mps 619 mmHg 16%
    17:00 +3°C° 0 mm 2 mps 619 mmHg 18%
    18:00 +2°C° 0 mm 2 mps 619 mmHg 20%
    19:00 +2°C° 0 mm 2 mps 619 mmHg 23%
    20:00 +1°C° 0 mm 2 mps 619 mmHg 27%
    21:00 -1°C° 0 mm 2 mps 619 mmHg 31%
    22:00 -1°C° 0 mm 2 mps 619 mmHg 34%
    23:00 -2°C° 0 mm 2 mps 619 mmHg 38%

    28 March, Thursday

    Time Temperature Precipitation Wind Pressure Humidity
    00:00 -2°C° 0 mm 2 mps 619 mmHg 42%
    01:00 -3°C° 0 mm 2 mps 619 mmHg 42%
    02:00 -3°C° 0 mm 2 mps 619 mmHg 43%
    03:00 -4°C° 0 mm 2 mps 619 mmHg 44%
    04:00 -4°C° 0 mm 2 mps 620 mmHg 44%
    05:00 -5°C° 0 mm 2 mps 620 mmHg 43%
    06:00 -5°C° 0 mm 2 mps 620 mmHg 42%
    07:00 -3°C° 0 mm 2 mps 621 mmHg 37%
    08:00 -2°C° 0 mm 2 mps 621 mmHg 32%
    09:00 +1°C° 0 mm 2 mps 621 mmHg 27%
    10:00 +2°C° 0 mm 2 mps 621 mmHg 24%
    11:00 +2°C° 0 mm 3 mps 621 mmHg 20%
    12:00 +3°C° 0 mm 3 mps 621 mmHg 16%
    13:00 +3°C° 0 mm 4 mps 621 mmHg 15%
    14:00 +4°C° 0 mm 4 mps 621 mmHg 14%
    15:00 +5°C° 0 mm 4 mps 621 mmHg 12%
    16:00 +4°C° 0 mm 4 mps 621 mmHg 14%
    17:00 +3°C° 0 mm 3 mps 621 mmHg 15%
    18:00 +3°C° 0 mm 2 mps 621 mmHg 17%
    19:00 +2°C° 0 mm 2 mps 621 mmHg 20%
    20:00 +2°C° 0 mm 1 mps 622 mmHg 22%
    21:00 +1°C° 0 mm 1 mps 622 mmHg 25%
    22:00 0°C° 0 mm 1 mps 622 mmHg 27%
    23:00 0°C° 0 mm 1 mps 621 mmHg 29%

    29 March, Friday

    Time Temperature Precipitation Wind Pressure Humidity
    00:00 -1°C° 0 mm 1 mps 621 mmHg 30%
    01:00 -1°C° 0 mm 1 mps 621 mmHg 31%
    02:00 -2°C° 0 mm 1 mps 621 mmHg 32%
    03:00 -3°C° 0 mm 0 mps 621 mmHg 32%
    04:00 -3°C° 0 mm 0 mps 621 mmHg 32%
    05:00 -3°C° 0 mm 1 mps 621 mmHg 32%
    06:00 -3°C° 0 mm 1 mps 621 mmHg 32%
    07:00 -1°C° 0 mm 1 mps 621 mmHg 27%
    08:00 +1°C° 0 mm 1 mps 622 mmHg 22%
    09:00 +3°C° 0 mm 1 mps 623 mmHg 18%
    10:00 +4°C° 0 mm 1 mps 622 mmHg 16%
    11:00 +4°C° 0 mm 2 mps 622 mmHg 14%
    12:00 +5°C° 0 mm 2 mps 622 mmHg 12%
    13:00 +6°C° 0 mm 2 mps 622 mmHg 13%
    14:00 +7°C° 0 mm 2 mps 621 mmHg 13%
    15:00 +7°C° 0 mm 2 mps 621 mmHg 13%
    16:00 +7°C° 0 mm 1 mps 621 mmHg 17%
    17:00 +6°C° 0 mm 1 mps 621 mmHg 20%
    18:00 +6°C° 0 mm 1 mps 621 mmHg 24%
    19:00 +4°C° 0 mm 1 mps 621 mmHg 27%
    20:00 +3°C° 0 mm 1 mps 621 mmHg 31%
    21:00 +2°C° 0 mm 1 mps 621 mmHg 35%
    22:00 +2°C° 0 mm 1 mps 620 mmHg 36%
    23:00 +1°C° 0 mm 1 mps 620 mmHg 37%

    30 March, Saturday

    Time Temperature Precipitation Wind Pressure Humidity
    00:00 +1°C° 0 mm 1 mps 620 mmHg 38%
    01:00 -2°C° 0 mm 2 mps 619 mmHg 35%
    02:00 -2°C° 0 mm 2 mps 619 mmHg 33%
    03:00 -2°C° 0 mm 2 mps 619 mmHg 31%
    04:00 -2°C° 0 mm 2 mps 619 mmHg 28%
    05:00 -3°C° 0 mm 2 mps 619 mmHg 26%
    06:00 -3°C° 0 mm 2 mps 619 mmHg 24%
    07:00 -1°C° 0 mm 2 mps 619 mmHg 20%
    08:00 +3°C° 0 mm 1 mps 619 mmHg 17%
    09:00 +5°C° 0 mm 1 mps 619 mmHg 13%
    10:00 +6°C° 0 mm 1 mps 619 mmHg 13%
    11:00 +8°C° 0 mm 1 mps 619 mmHg 13%
    12:00 +9°C° 0 mm 1 mps 619 mmHg 12%
    13:00 +10°C° 0 mm 1 mps 619 mmHg 13%
    14:00 +11°C° 0 mm 1 mps 619 mmHg 15%
    15:00 +11°C° 0 mm 1 mps 619 mmHg 16%
    16:00 +11°C° 0 mm 1 mps 619 mmHg 19%
    17:00 +10°C° 0 mm 1 mps 619 mmHg 22%
    18:00 +9°C° 0 mm 1 mps 619 mmHg 26%
    19:00 +8°C° 0 mm 1 mps 619 mmHg 29%
    20:00 +7°C° 0 mm 1 mps 618 mmHg 32%
    21:00 +6°C° 0 mm 1 mps 618 mmHg 35%
    22:00 +6°C° 0 mm 1 mps 618 mmHg 36%
    23:00 +5°C° 0 mm 1 mps 618 mmHg 38%
    Show more